User: anonymous
Location: Arrakis Observatory
(44.1122°N, 95.7153°W)
Time: 08:22:42
(UTC-05:00)
Language:

SL-8 R/B - Orbit

View from above orbital plane
View from above orbital plane
View from above satellite
View from above satellite

Ground track
Ground track

The orbit data is extracted from the following two-line orbital elements,

1 32751U 08014B   14235.12080726  .00052587  00000-0  42688-3 0  9237
2 32751 098.1406 197.8097 0006242 263.6695 225.2857 15.70562705358218
Epoch (UTC): 23 August 2014 02:53:57
Eccentricity: 0.0006242
inclination: 98.1406°
perigee height: 353 km
apogee height: 361 km
right ascension of ascending node: 197.8097°
argument of perigee: 263.6695°
revolutions per day: 15.70562705
mean anomaly at epoch: 225.2857°
orbit number at epoch: 35821

The dashed part of the orbit path shows where the satellite is in the earth's shadow,  

DLR